Weather in Krasnogorskiy

Russia / Ivanovo Oblast     57°30′49″N   42°49′15″E
temp.,
°C
wind,
m/s
gust,
m/s
humid.,
%
clouds,
%
prec.,
mm/h
press.,
hPa
HPBL,
m
2 march, tue
tue200:00+1w61398100 0.5 1005749
03:00+1w51299100 1.1 1003672
06:00+1wnw61298100 0.8 1000791
09:00+1wnw5128895 0.9 10011130
12:00+1wnw5119180 0.1 10001069
15:00+1wnw5108978 0.2 1001987
18:00−1wnw4119293 0.1 1001756
21:00−4wnw4139093 0.2 1003750
3 march, wed
wed300:00−6nw5138887 0.0 1003607
03:00−7nw5129088 0.0 1006648
06:00−8nw51291100 0.0 1007606
09:00−7nw51190100 0.1 1009617
12:00−5wnw5987100 0.0 1008763
15:00−3w598687 0.1 1007804
18:00−3wsw3109697 0.1 1005501
21:00−3w5129198 0.2 1004771
4 march, thu
thu400:00−4w4119499 0.1 1002586
03:00−3wsw5119599 0.8 1000755
06:00−3wsw41195100 0.4 996620
09:00−1sw3797100 0.8 993478
12:000wnw5108997 2.4 9921145
15:00−2wnw698497 2.7 9941089
18:00−4nw389295 0.1 996292
21:00−9nnw239488 0.1 99839
5 march, fri
fri500:00−12nw239357 0.0 99925
03:00−13nw239628 0.0 100249
06:00−15nw24960 0.0 100480
09:00−13nnw25920 0.0 1005238
12:00−8nw23840 0.0 1007429
15:00−6wnw238220 0.0 1008657
18:00−9sw229193 0.0 100926
21:00−10wsw129596 0.0 101021
6 march, sat
sat600:00−12w129789 0.1 101121
03:00−13wnw259781 0.1 101194
06:00−16wnw379556 0.0 1012169
09:00−15nw369332 0.0 1013277
12:00−12nw358566 0.0 1014649
15:00−11wnw358379 0.1 1013806
18:00−14w249494 0.0 101275
21:00−17wsw239547 0.0 101253